User: anonymous   Login
Location: NJAA Observatory
(40.6819°N, 74.8979°W)
Time: 20:34:58
(UTC-05:00)
Language:

S-56A Canister/Altair - Orbit

View from above orbital plane
View from above orbital plane
View from above satellite
View from above satellite

Ground track
Ground track

The orbit data is extracted from the following two-line orbital elements,

1    82U 61004B   17020.70381979 +.00000047 +00000-0 +68509-4 0  9998
2    82 038.8566 122.8286 1167950 202.0655 152.5496 12.25807378655164
Epoch (UTC): 20 January 2017 16:53:30
Eccentricity: 0.1167950
inclination: 38.8566°
perigee height: 639 km
apogee height: 2495 km
right ascension of ascending node: 122.8286°
argument of perigee: 202.0655°
revolutions per day: 12.25807378
mean anomaly at epoch: 152.5496°
orbit number at epoch: 65516

The dashed part of the orbit path shows where the satellite is in the earth's shadow,  

DLR